Location: ??????
(42.0089°N, 44.3281°E)
Time: 13:23:07
(UTC+00:00)

Iridium 4 Rocket - Pass Details

Date: 24 October 2021
Orbit: 586 x 903 km, 86.9° (Epoch: 07 December)

Event Time Altitude Azimuth Distance (km) Brightness Sun altitude
Rises 15:19:45 0° 356° (N) 3,005 6.6 -14.1°
Reaches altitude 10° 15:21:55 10° 356° (N) 2,130 5.8 -14.5°
Maximum altitude 15:26:39 82° 270° (W) 739 3.5 -15.3°
Drops below altitude 10° 15:31:49 10° 183° (S) 2,320 6.0 -16.3°
Sets 15:34:16 0° 182° (S) 3,294 6.8 -16.8°
